Date,TemperatureHighF,TemperatureAvgF,TemperatureLowF,DewpointHighF,DewpointAvgF,DewpointLowF,HumidityHigh,HumidityAvg,HumidityLow,PressureMaxIn,PressureMinIn,WindSpeedMaxMPH,WindSpeedAvgMPH,GustSpeedMaxMPH,PrecipitationSumIn
2013-1-1,49.9,46.1,40.8,49.6,44.9,31.4,99,96,60,30.09,29.93,1,0,2,0.27
2013-1-2,48.5,44.1,40.2,44.3,40.8,38.6,99,89,70,30.17,29.99,1,0,3,0.20
2013-1-3,45.2,37.9,27.7,39.2,35.0,27.0,97,90,70,30.26,30.14,0,0,2,0.00
2013-1-4,50.1,39.9,23.6,34.4,27.0,22.9,98,63,40,30.32,30.19,2,0,6,0.00
2013-1-5,48.6,39.4,24.9,33.6,29.2,22.6,92,69,44,30.39,30.27,1,0,4,0.00
2013-1-6,50.4,42.4,32.8,41.6,37.6,31.8,97,84,68,30.19,30.04,1,0,2,0.01
2013-1-7,51.3,39.4,27.3,36.1,31.9,26.6,98,77,50,30.43,30.17,1,0,2,0.00
2013-1-8,56.4,46.4,32.8,43.2,39.9,31.5,95,79,57,30.46,30.35,1,0,1,0.00
2013-1-9,66.6,53.4,32.9,52.9,47.2,32.1,98,81,58,30.44,30.34,1,0,2,0.00
2013-1-10,62.7,54.1,44.0,49.4,45.5,42.1,99,75,51,30.51,30.40,2,0,2,0.00
2013-1-11,49.5,46.9,41.5,49.2,46.4,40.7,99,98,88,30.41,30.14,0,0,0,0.26
2013-1-12,71.3,59.8,48.9,65.9,58.1,48.6,100,94,81,30.16,30.08,1,0,3,0.01
2013-1-13,73.8,65.4,57.7,63.4,60.0,56.3,97,84,66,30.10,30.03,2,0,8,0.00
2013-1-14,69.0,63.5,57.6,65.3,61.5,56.8,98,93,84,30.13,30.06,1,0,4,0.00
2013-1-15,59.9,46.1,44.9,59.6,45.5,44.1,99,98,96,30.21,30.04,1,0,2,0.03
2013-1-16,49.1,46.2,43.0,49.1,46.0,42.7,100,99,99,30.06,29.97,0,0,2,0.21
2013-1-17,49.8,44.9,33.2,49.7,44.5,32.5,100,99,96,30.15,29.84,3,1,5,1.36
2013-1-18,44.4,35.7,26.4,33.4,29.7,25.6,99,80,54,30.53,30.14,1,0,4,0.11
2013-1-19,52.8,40.0,23.5,35.8,31.0,22.8,99,73,43,30.50,30.17,2,0,3,0.01
2013-1-20,63.2,50.5,33.3,40.5,36.4,31.2,93,63,36,30.08,29.98,2,1,7,0.00
2013-1-21,58.8,45.3,26.4,37.5,30.7,23.2,97,60,36,30.07,29.86,2,0,3,0.00
2013-1-22,38.8,32.2,24.8,26.0,9.9,2.7,74,42,22,30.28,29.96,2,0,4,0.00
2013-1-23,40.7,29.9,15.8,20.7,15.2,6.7,89,58,35,30.38,30.06,2,0,7,0.00
2013-1-24,39.4,32.1,23.6,24.7,12.0,4.8,69,44,31,30.50,30.10,2,1,6,0.00
2013-1-25,27.2,24.9,21.0,25.5,19.9,8.0,95,82,49,30.49,30.12,0,0,1,0.00
2013-1-26,42.1,32.6,25.2,34.5,30.0,24.0,97,90,69,30.39,30.11,1,0,2,0.02
2013-1-27,40.8,35.6,30.8,31.4,29.1,27.9,91,78,61,30.60,30.49,1,0,2,0.02
2013-1-28,50.6,45.2,33.3,48.1,40.4,32.3,97,83,69,30.47,30.22,2,0,3,0.12
2013-1-29,72.0,59.3,38.1,59.6,54.0,37.6,100,84,65,30.22,30.05,2,0,5,0.00
2013-1-30,73.1,68.4,59.9,65.3,63.4,57.9,95,85,75,29.93,29.39,4,2,8,0.25
2013-1-31,59.7,43.4,29.1,57.4,27.7,22.1,94,56,35,30.01,29.46,4,2,17,0.11